, AK

(GMT )
Deadhorse

Weather History for PASC - January, 2012

Change the Weather History Date:

Thursday, January 12, 2012

  Actual Average Record
Temperature  
Mean Temperature -28 °F -  
Max Temperature -24 °F -5 °F 111 °F (2008)
Min Temperature -31 °F -17 °F -49 °F (1991)
Degree Days  
Heating Degree Days 92    
Moisture  
Dew Point -34 °F    
Average Humidity 74    
Maximum Humidity 78    
Minimum Humidity 71    
Precipitation  
Precipitation 0.00 in - - ()
Sea Level Pressure  
Sea Level Pressure 30.19 in    
Wind  
Wind Speed 16 mph (SW)    
Max Wind Speed 21 mph    
Max Gust Speed -    
Visibility 7 miles    
Events Snow    
Averages and records for this station are not official NWS values.
T = Trace of Precipitation, MM = Missing Value Source: NWS Daily Summary

Daily Weather History Graph

Daily Weather History Graph

Search for Another Location

Airport or City:

Trip Planner

Search our weather history database for the weather conditions in past years. The results will help you decide how hot, cold, wet, or windy it might be!

Date:

Astronomy

Jan. 12, 2012 Rise Set
Actual Time 12:29 PM AKST 1:34 PM AKST
Civil Twilight 10:23 AM AKST 3:41 PM AKST
Nautical Twilight 8:46 AM AKST 5:18 PM AKST
Astronomical Twilight 7:29 AM AKST 6:35 PM AKST
Moon 9:49 PM AKST (1/12) 10:39 AM AKST (1/12)
Length of Visible Light 5h 18m
Length of Day
1h 04m
Waning Gibbous, 86% of the Moon is Illuminated
Jan 12
Waning Gibbous
Jan 16
Last Quarter
Jan 22
New
Jan 30
First Quarter
Feb 7
Full

Hourly Weather History & Observations

Time (AKST) Temp. Windchill Dew Point Humidity Pressure Visibility Wind Dir Wind Speed Gust Speed Precip Events Conditions
12:53 AM -24.0 °F -53.2 °F -29.9 °F 74% 30.00 in 3.0 mi SW 19.6 mph - N/A Snow Blowing Snow
1:53 AM -26.0 °F -55.8 °F -31.0 °F 77% 30.03 in 6.0 mi WSW 19.6 mph - N/A Snow Blowing Snow
2:53 AM -25.1 °F -55.3 °F -29.9 °F 78% 30.04 in 5.0 mi WSW 20.7 mph - N/A Snow Blowing Snow
3:53 AM -27.0 °F -54.0 °F -33.0 °F 73% 30.06 in 9.0 mi WSW 15.0 mph - N/A   Mostly Cloudy
4:53 AM -27.0 °F -53.1 °F -33.0 °F 73% 30.07 in 5.0 mi WSW 13.8 mph - N/A   Overcast
5:41 AM -29.2 °F -55.8 °F -34.6 °F 75% 30.07 in 8.0 mi WSW 13.8 mph - N/A   Overcast
5:53 AM -29.0 °F -53.5 °F -34.1 °F 77% 30.09 in 7.0 mi SW 11.5 mph - N/A   Mostly Cloudy
6:53 AM -29.0 °F -55.6 °F -35.0 °F 73% 30.11 in 4.0 mi SW 13.8 mph - N/A Snow Blowing Snow
7:53 AM -29.0 °F -53.5 °F -35.0 °F 73% 30.14 in 10.0 mi SW 11.5 mph - N/A   Clear
8:53 AM -29.0 °F -54.6 °F -34.1 °F 77% 30.14 in 10.0 mi WSW 12.7 mph - N/A   Clear
9:53 AM -29.0 °F -57.4 °F -35.0 °F 73% 30.16 in 10.0 mi SW 16.1 mph - N/A   Clear
10:53 AM -29.9 °F -56.7 °F -36.4 °F 71% 30.17 in 10.0 mi SW 13.8 mph - N/A   Mostly Cloudy
11:53 AM -31.0 °F -59.1 °F - N/A% 30.19 in 10.0 mi SW 15.0 mph - N/A   Clear
12:53 PM -29.0 °F -55.6 °F -35.0 °F 73% 30.20 in 10.0 mi SW 13.8 mph - N/A   Clear
1:53 PM -29.0 °F -54.6 °F -35.0 °F 73% 30.22 in 8.0 mi SW 12.7 mph - N/A   Mostly Cloudy
2:13 PM -29.2 °F -54.8 °F -34.6 °F 75% 30.22 in 10.0 mi SW 12.7 mph - N/A   Scattered Clouds
2:53 PM -29.9 °F -57.7 °F - N/A% 30.23 in 10.0 mi SW 15.0 mph - N/A   Clear
3:14 PM -31.0 °F -58.1 °F - N/A% 30.23 in 7.0 mi SW 13.8 mph - N/A   Partly Cloudy
3:53 PM -29.9 °F -57.7 °F - N/A% 30.25 in 10.0 mi SW 15.0 mph - N/A   Clear
4:53 PM -29.9 °F -57.7 °F - N/A% 30.26 in 8.0 mi WSW 15.0 mph - N/A   Clear
5:53 PM -29.9 °F -59.4 °F - N/A% 30.27 in 5.0 mi SW 17.3 mph - N/A   Partly Cloudy
6:53 PM -29.9 °F -56.7 °F - N/A% 30.28 in 4.0 mi SW 13.8 mph - N/A   Overcast
7:19 PM -31.0 °F -58.1 °F - N/A% 30.27 in 4.0 mi SW 13.8 mph - N/A   Mostly Cloudy
7:53 PM -31.0 °F -59.1 °F - N/A% 30.29 in 9.0 mi SW 15.0 mph - N/A   Scattered Clouds
8:53 PM -31.0 °F -59.1 °F - N/A% 30.30 in 4.0 mi SW 15.0 mph - N/A   Partly Cloudy
9:53 PM -29.9 °F -57.7 °F - N/A% 30.31 in 5.0 mi SW 15.0 mph - N/A   Clear
10:53 PM -29.9 °F -61.0 °F - N/A% 30.33 in 5.0 mi SW 19.6 mph - N/A   Clear
11:53 PM -29.9 °F -61.0 °F - N/A% 30.36 in 4.0 mi SW 19.6 mph - N/A Snow Blowing Snow